Atlantic City International Airport
KACY : now visible

Airfield :











YOU CAN JOIN US ON...

 
LOGIN :

Register | Disclaimer

   EN    FR    IT 

 









Legend :    VFR   Marginal VFR   IFR   Intensive IFR   Very Intensive IFR
Visi :
Ceiling :
>= 8 km
>= 3000ft
5 to 8 km
1000 to 3000 ft
1500m to 5 km
500 to 1000 ft
800 to 1500m
200 to 500 ft
< 800m
< 200 ft
Symbols :   Thunderstorms  Fog  Heavy snow  Heavy precipitations  Wind > 20 kt






- Airport Elevation : 75 ft
- IATA code : ACY


KACY - Atlantic City International

CURRENT METAR :
  • 280654Z 31005KT 10SM CLR 09/08 A2989 RMK AO2 SLP122 T00940083

EXPIRED METARs :
  • 280554Z 32005KT 10SM CLR 09/08 A2987 RMK AO2 SLP114 T00940083 10144 20094 50011
  • 280454Z 35004KT 10SM SCT041 10/08 A2987 RMK AO2 SLP115 T01000083 401830094

TAF KACY
Valid from the 28 at 06:00 until the 29 at 06:00 UTC


280523Z 2806/2906 36003KT P6SM SCT040
FM281200 06006KT P6SM SCT250
FM281600 06009KT P6SM BKN050
FM290000 08010KT P6SM OVC025
KZDC FIR / North America



MET'MAP, your aeronautical weather chart ! - Copyright ORBIFLY December 2007 - Disclaimer

ORBIFLY MET'MAP TEAM :

Programming & Development : Alexandra Zaïnal
Concept & original design : Baudouin d'Aumeries
Assistance for programming : Marc-Olivier Méhu
Technical & hardware support : Manuel Goepfert

Contact : metmap@orbifly.com




SOURCES & CREDITS :

   NOAA       Earth
Advisory